Simultaneous Nadir Overpasses (SNOs) Predictions

Prediction of SNOs between GOES-16 and FY3D Satellite Orbit:

Table of predicted SNOs for the next 14.0 days since TLE Epoch: 7/6/2024
Index Date Time (GOES-16) GOES-16 Lat,Lon FY3D Lat,Lon Distance(km) Time Diff (sec)
1 07/06/2024 07:17:02 0.04, -75.20 -0.83, -71.42 431.02 80
2 07/07/2024 19:41:54 -0.04, -75.21 -0.41, -76.75 176.05 80
3 07/08/2024 19:20:40 -0.04, -75.21 0.63, -72.25 338.03 80
4 07/10/2024 07:45:24 0.04, -75.23 0.56, -77.55 264.88 80
5 07/11/2024 07:24:11 0.04, -75.24 -0.48, -73.05 249.75 80
6 07/12/2024 19:49:02 -0.04, -75.26 -0.74, -78.38 355.72 80
7 07/13/2024 19:27:49 -0.04, -75.27 0.31, -73.88 159.25 80
8 07/15/2024 07:52:32 0.03, -75.30 0.94, -79.17 442.77 80
9 07/16/2024 07:31:19 0.03, -75.31 -0.11, -74.68 72.23 80
10 07/18/2024 19:37:37 -0.00, -75.35 -0.04, -75.51 18.06 80
11 07/19/2024 19:16:23 0.01, -75.37 1.01, -71.02 496.94 80
